Content
SEND FEEDBACK

Daily
Averages
Monthly
Summary
Italy

FIESOLE, ITALY


Home > Europe > Italy
Elevation: 246 feet     Latitude: 43 48N     Longitude: 011 18E

WEATHER
 
SELECT A DAY
Number of Records: 242,415;   Date Range: 7/1/96 - 7/28/14
 
SHARE

PRINT THIS DATA

[ ← Previous Day ]
WEATHER ALMANAC - JANUARY 31, 2013
[ Next Day → ]
[ °C ]   °F
Weather ElementAverageHighLow
Temperature51.7 °F59 °F (1:20 pm)44.6 °F (10:50 pm)
Dewpoint47.1 °F50 °F (8:50 am)42.8 °F (10:50 pm)
Humidity84.8 %100 % (3:50 am)67 % (1:20 pm)
Barometer30.15 in30.24 in (10:50 am)30.09 in (1:20 am)
Wind Speed3.1 mph5.8 mph (12:20 pm)
Weather ElementAverage
Visibility5.7 mi
Wind DirectionESE (112.6 °)

Weather ElementTotal
Precipitation---
Heating Degree Days13.2 (Base 65)
Growing Degree Days1.8 (Base 50)
Averaged from 47 records on January 31, 2013
WEATHER CONDITIONS BREAKOUT
WIND DIRECTION BREAKOUT
WEATHER BY HOUR - JANUARY 31, 2013
[ °C ]   °F
Local TimeTemperatureDewpointHumidityBarometerVisibilityWind DirectionWind SpeedGust SpeedPrecipitationEventsConditions
12:50 AM50.0 °F46.4 °F87 %30.12 in6.2 miCalmOvercast
1:20 AM48.2 °F46.4 °F93 %30.09 in6.2 miSE (130°)2.3 mphOvercast
1:50 AM48.2 °F46.4 °F93 %30.09 in6.2 miNorth (10°)2.3 mphOvercast
2:20 AM48.2 °F46.4 °F93 %30.09 in6.2 miENE (60°)3.5 mphOvercast
2:50 AM48.2 °F46.4 °F93 %30.12 in6.2 miVariable1.2 mphOvercast
3:20 AM48.2 °F46.4 °F93 %30.12 in6.2 miVariable1.2 mphOvercast
3:50 AM48.2 °F48.2 °F100 %30.12 in6.2 miESE (120°)4.6 mphOvercast
4:20 AM50.0 °F46.4 °F87 %30.12 in6.2 miEast (90°)4.6 mphOvercast
4:50 AM50.0 °F48.2 °F94 %30.12 in6.2 miESE (110°)3.5 mphOvercast
5:20 AM50.0 °F46.4 °F87 %30.12 in6.2 miCalmOvercast
5:50 AM48.2 °F46.4 °F93 %30.15 in6.2 miVariable2.3 mphOvercast
6:20 AM48.2 °F46.4 °F93 %30.15 in6.2 miVariable2.3 mphMostly Cloudy
6:50 AM48.2 °F46.4 °F93 %30.15 in6.2 miVariable2.3 mphMostly Cloudy
7:20 AM50.0 °F48.2 °F94 %30.15 in3.7 miWSW (240°)4.6 mphMostly Cloudy
7:50 AM48.2 °F46.4 °F93 %30.18 in3.7 miVariable2.3 mphMostly Cloudy
8:20 AM48.2 °F46.4 °F93 %30.18 in3.1 miCalmMostly Cloudy
8:50 AM51.8 °F50.0 °F94 %30.18 in3.1 miCalmMostly Cloudy
9:20 AM51.8 °F48.2 °F88 %30.21 in3.1 miVariable2.3 mphPartly Cloudy
9:50 AM51.8 °F48.2 °F88 %30.21 in3.1 miCalmPartly Cloudy
10:20 AM55.4 °F50.0 °F82 %30.21 in3.7 miVariable2.3 mphPartly Cloudy
10:50 AM55.4 °F50.0 °F82 %30.24 in5.0 miWNW (300°)4.6 mphPartly Cloudy
11:20 AM57.2 °F48.2 °F72 %30.24 in5.0 miWNW (290°)4.6 mphPartly Cloudy
11:50 AM57.2 °F48.2 °F72 %30.24 in6.2 miWest (260°)4.6 mphPartly Cloudy
12:20 PM57.2 °F48.2 °F72 %30.21 in6.2 miWSW (250°)5.8 mphPartly Cloudy
12:50 PM57.2 °F48.2 °F72 %30.21 in6.2 miWest (260°)4.6 mphPartly Cloudy
1:20 PM59.0 °F48.2 °F67 %30.21 in6.2 miVariable2.3 mphPartly Cloudy
1:50 PM59.0 °F48.2 °F67 %30.18 in6.2 miVariable3.5 mphPartly Cloudy
2:20 PM59.0 °F48.2 °F67 %30.18 in6.2 miNW (310°)3.5 mphPartly Cloudy
2:50 PM59.0 °F48.2 °F67 %30.15 inWest (260°)3.5 mphClear
3:20 PM59.0 °F48.2 °F67 %30.15 inWest (260°)3.5 mphClear
3:50 PM57.2 °F48.2 °F72 %30.18 in6.2 miWest (270°)5.8 mphScattered Clouds
4:20 PM57.2 °F48.2 °F72 %30.15 in6.2 miWNW (300°)4.6 mphScattered Clouds
4:50 PM57.2 °F48.2 °F72 %30.15 in6.2 miWNW (290°)3.5 mphScattered Clouds
5:20 PM55.4 °F48.2 °F77 %30.15 in6.2 miWest (270°)3.5 mphMostly Cloudy
5:50 PM53.6 °F46.4 °F77 %30.12 in6.2 miVariable2.3 mphScattered Clouds
6:20 PM51.8 °F46.4 °F82 %30.12 in6.2 miVariable2.3 mphScattered Clouds
6:50 PM51.8 °F48.2 °F88 %30.12 in6.2 miVariable1.2 mphScattered Clouds
7:20 PM51.8 °F48.2 °F88 %30.15 in6.2 miVariable2.3 mphScattered Clouds
7:50 PM50.0 °F46.4 °F87 %30.12 in6.2 miSSE (150°)3.5 mphPartly Cloudy
8:20 PM51.8 °F48.2 °F88 %30.12 in6.2 miNorth (350°)3.5 mphPartly Cloudy
8:50 PM48.2 °F44.6 °F87 %30.15 in5.6 miEast (100°)4.6 mphPartly Cloudy
9:20 PM48.2 °F44.6 °F87 %30.12 in5.6 miSE (130°)3.5 mphPartly Cloudy
9:50 PM46.4 °F44.6 °F93 %30.12 in6.2 miEast (90°)5.8 mphPartly Cloudy
10:20 PM46.4 °F46.4 °F100 %30.12 in6.2 miESE (110°)5.8 mphPartly Cloudy
10:50 PM44.6 °F42.8 °F93 %30.12 in6.2 miESE (110°)3.5 mphPartly Cloudy
11:20 PM44.6 °F42.8 °F93 %30.12 in6.2 miENE (70°)3.5 mphPartly Cloudy
11:50 PM44.6 °F42.8 °F93 %30.12 in6.2 miEast (100°)3.5 mphPartly Cloudy
Hourly data recorded from LIRQ, located miles away from Fiesole, Italy







STORIES FROM OUR PARTNERS